Simultaneous Nadir Overpasses (SNOs) Predictions

Prediction of SNOs between LANDSAT-8 and METOP-A Satellite Orbit:

Table of predicted SNOs for the next 14.0 days since TLE Epoch: 9/15/2018
Index Date (LANDSAT-8) Time (LANDSAT-8) Lat,Lon (LANDSAT-8) SZA (LANDSAT-8 ) Date (METOP-A) Time (METOP-A) Lat,Lon (METOP-A) SZA (METOP-A ) Distance(km) Time Diff (sec)
1 09/16/2018 17:24:07 -81.40, 143.84 98.43 09/16/2018 17:23:32 -81.40, 143.83 98.45 0.31 35
2 09/16/2018 18:13:33 81.41, -48.39 81.61 09/16/2018 18:14:11 81.40, -48.24 81.64 2.44 38
3 09/19/2018 12:58:23 -81.40,-149.77 97.32 09/19/2018 12:57:48 -81.40,-149.58 97.32 3.13 35
4 09/19/2018 13:47:49 81.40, 17.97 82.71 09/19/2018 13:48:28 81.40, 17.94 82.72 0.53 39
5 09/22/2018 08:32:39 -81.39, -83.40 96.22 09/22/2018 08:32:05 -81.40, -83.39 96.23 0.29 34
6 09/22/2018 09:22:05 81.40, 84.31 83.81 09/22/2018 09:22:45 81.40, 84.12 83.81 3.16 40
7 09/25/2018 04:06:54 -81.39, -17.06 95.12 09/25/2018 04:06:21 -81.39, -17.22 95.14 2.69 33
8 09/25/2018 04:56:19 81.41, 151.01 84.96 09/25/2018 04:56:59 81.41, 151.09 84.99 1.39 40
9 09/27/2018 23:41:09 -81.40, 49.64 93.96 09/27/2018 23:40:36 -81.40, 49.74 93.97 1.69 33




NCC Satellite Simultaneous Nadir Overpasses (SNOs) Prediction Service
